owner,sensor,date,latitude,longitude,air_pressure(mBar),qcFlag 
ADCP,ioos:station:wmo:42376:1,2011-04-01T00:00:00Z,29.1080,-87.9440,1007.9,11111222 
ADCP,ioos:station:wmo:42376:1,2011-04-01T00:20:00Z,29.1080,-87.9440,1007.9,11111222 
ADCP,ioos:station:wmo:42376:1,2011-04-01T00:40:00Z,29.1080,-87.9440,1008.5,11111222 
ADCP,ioos:station:wmo:42376:1,2011-04-01T01:00:00Z,29.1080,-87.9440,1008.6,11111222 
ADCP,ioos:station:wmo:42376:1,2011-04-01T01:20:00Z,29.1080,-87.9440,1008.6,11111222 
ADCP,ioos:station:wmo:42376:1,2011-04-01T01:40:00Z,29.1080,-87.9440,1008.9,11111222 
ADCP,ioos:station:wmo:42376:1,2011-04-01T02:00:00Z,29.1080,-87.9440,1009.2,11111222 
ADCP,ioos:station:wmo:42376:1,2011-04-01T02:20:00Z,29.1080,-87.9440,1009.2,11111222 
ADCP,ioos:station:wmo:42376:1,2011-04-01T03:00:00Z,29.1080,-87.9440,1009.4,11111222 
ADCP,ioos:station:wmo:42376:1,2011-04-01T03:20:00Z,29.1080,-87.9440,1009.4,11111222 
ADCP,ioos:station:wmo:42376:1,2011-04-01T03:40:00Z,29.1080,-87.9440,1009.2,11111222 
ADCP,ioos:station:wmo:42376:1,2011-04-01T04:20:00Z,29.1080,-87.9440,1009.5,11111222 
ADCP,ioos:station:wmo:42376:1,2011-04-01T04:40:00Z,29.1080,-87.9440,1010.0,11111222 
ADCP,ioos:station:wmo:42376:1,2011-04-01T05:00:00Z,29.1080,-87.9440,1010.1,11111222 
ADCP,ioos:station:wmo:42376:1,2011-04-01T05:20:00Z,29.1080,-87.9440,1010.1,11111222 
ADCP,ioos:station:wmo:42376:1,2011-04-01T05:40:00Z,29.1080,-87.9440,1010.2,11111222 
ADCP,ioos:station:wmo:42376:1,2011-04-01T06:00:00Z,29.1080,-87.9440,1010.3,11111222 
ADCP,ioos:station:wmo:42376:1,2011-04-01T06:20:00Z,29.1080,-87.9440,1010.3,11111222 
ADCP,ioos:station:wmo:42376:1,2011-04-01T06:40:00Z,29.1080,-87.9440,1010.7,11111222 
ADCP,ioos:station:wmo:42376:1,2011-04-01T07:00:00Z,29.1080,-87.9440,1010.5,11111222 
ADCP,ioos:station:wmo:42376:1,2011-04-01T07:20:00Z,29.1080,-87.9440,1010.5,11111222 
ADCP,ioos:station:wmo:42376:1,2011-04-01T07:40:00Z,29.1080,-87.9440,1010.5,11111222 
ADCP,ioos:station:wmo:42376:1,2011-04-01T08:00:00Z,29.1080,-87.9440,1010.2,11111222 
ADCP,ioos:station:wmo:42376:1,2011-04-01T08:20:00Z,29.1080,-87.9440,1010.2,11111222 
ADCP,ioos:station:wmo:42376:1,2011-04-01T08:40:00Z,29.1080,-87.9440,1010.1,11111222 
ADCP,ioos:station:wmo:42376:1,2011-04-01T09:00:00Z,29.1080,-87.9440,1009.7,11111222 
ADCP,ioos:station:wmo:42376:1,2011-04-01T09:20:00Z,29.1080,-87.9440,1009.7,11111222 
ADCP,ioos:station:wmo:42376:1,2011-04-01T09:40:00Z,29.1080,-87.9440,1009.4,11111222 
ADCP,ioos:station:wmo:42376:1,2011-04-01T10:00:00Z,29.1080,-87.9440,1009.6,11111222 
ADCP,ioos:station:wmo:42376:1,2011-04-01T10:20:00Z,29.1080,-87.9440,1009.6,11111222 
ADCP,ioos:station:wmo:42376:1,2011-04-01T10:40:00Z,29.1080,-87.9440,1009.6,11111222 
ADCP,ioos:station:wmo:42376:1,2011-04-01T11:00:00Z,29.1080,-87.9440,1009.7,11111222 
ADCP,ioos:station:wmo:42376:1,2011-04-01T11:20:00Z,29.1080,-87.9440,1009.7,11111222 
ADCP,ioos:station:wmo:42376:1,2011-04-01T11:40:00Z,29.1080,-87.9440,1009.8,11111222 
ADCP,ioos:station:wmo:42376:1,2011-04-01T12:00:00Z,29.1080,-87.9440,1010.0,11111222 
ADCP,ioos:station:wmo:42376:1,2011-04-01T12:20:00Z,29.1080,-87.9440,1010.0,11111222 
ADCP,ioos:station:wmo:42376:1,2011-04-01T12:40:00Z,29.1080,-87.9440,1010.2,11111222 
ADCP,ioos:station:wmo:42376:1,2011-04-01T13:00:00Z,29.1080,-87.9440,1010.5,11111222 
ADCP,ioos:station:wmo:42376:1,2011-04-01T13:20:00Z,29.1080,-87.9440,1010.5,11111222 
ADCP,ioos:station:wmo:42376:1,2011-04-01T13:40:00Z,29.1080,-87.9440,1010.7,11111222 
ADCP,ioos:station:wmo:42376:1,2011-04-01T14:00:00Z,29.1080,-87.9440,1011.3,11111222 
ADCP,ioos:station:wmo:42376:1,2011-04-01T14:20:00Z,29.1080,-87.9440,1011.3,11111222 
ADCP,ioos:station:wmo:42376:1,2011-04-01T14:40:00Z,29.1080,-87.9440,1011.8,11111222 
ADCP,ioos:station:wmo:42376:1,2011-04-01T15:00:00Z,29.1080,-87.9440,1012.1,11111222 
ADCP,ioos:station:wmo:42376:1,2011-04-01T15:20:00Z,29.1080,-87.9440,1012.1,11111222 
ADCP,ioos:station:wmo:42376:1,2011-04-01T15:40:00Z,29.1080,-87.9440,1012.4,11111222 
ADCP,ioos:station:wmo:42376:1,2011-04-01T16:00:00Z,29.1080,-87.9440,1012.8,11111222 
ADCP,ioos:station:wmo:42376:1,2011-04-01T16:20:00Z,29.1080,-87.9440,1012.8,11111222 
ADCP,ioos:station:wmo:42376:1,2011-04-01T16:40:00Z,29.1080,-87.9440,1013.0,11111222 
ADCP,ioos:station:wmo:42376:1,2011-04-01T17:00:00Z,29.1080,-87.9440,1012.9,11111222 
ADCP,ioos:station:wmo:42376:1,2011-04-01T17:20:00Z,29.1080,-87.9440,1012.9,11111222 
ADCP,ioos:station:wmo:42376:1,2011-04-01T17:40:00Z,29.1080,-87.9440,1012.5,11111222 
ADCP,ioos:station:wmo:42376:1,2011-04-01T18:00:00Z,29.1080,-87.9440,1012.4,11111222 
ADCP,ioos:station:wmo:42376:1,2011-04-01T18:20:00Z,29.1080,-87.9440,1012.4,11111222 
ADCP,ioos:station:wmo:42376:1,2011-04-01T18:40:00Z,29.1080,-87.9440,1012.4,11111222 
ADCP,ioos:station:wmo:42376:1,2011-04-01T19:00:00Z,29.1080,-87.9440,1012.2,11111222 
ADCP,ioos:station:wmo:42376:1,2011-04-01T19:20:00Z,29.1080,-87.9440,1012.2,11111222 
ADCP,ioos:station:wmo:42376:1,2011-04-01T19:40:00Z,29.1080,-87.9440,1012.2,11111222 
ADCP,ioos:station:wmo:42376:1,2011-04-01T20:00:00Z,29.1080,-87.9440,1011.9,11111222 
ADCP,ioos:station:wmo:42376:1,2011-04-01T20:20:00Z,29.1080,-87.9440,1011.9,11111222 
ADCP,ioos:station:wmo:42376:1,2011-04-01T20:40:00Z,29.1080,-87.9440,1011.9,11111222 
ADCP,ioos:station:wmo:42376:1,2011-04-01T21:00:00Z,29.1080,-87.9440,1011.9,11111222 
ADCP,ioos:station:wmo:42376:1,2011-04-01T21:20:00Z,29.1080,-87.9440,1011.9,11111222 
ADCP,ioos:station:wmo:42376:1,2011-04-01T21:40:00Z,29.1080,-87.9440,1011.8,11111222 
ADCP,ioos:station:wmo:42376:1,2011-04-01T22:00:00Z,29.1080,-87.9440,1011.8,11111222 
ADCP,ioos:station:wmo:42376:1,2011-04-01T22:40:00Z,29.1080,-87.9440,1011.7,11111222 
ADCP,ioos:station:wmo:42376:1,2011-04-01T23:00:00Z,29.1080,-87.9440,1011.7,11111222 
ADCP,ioos:station:wmo:42376:1,2011-04-01T23:20:00Z,29.1080,-87.9440,1011.7,11111222 
ADCP,ioos:station:wmo:42376:1,2011-04-01T23:40:00Z,29.1080,-87.9440,1011.7,11111222 
ADCP,ioos:station:wmo:42376:1,2011-04-02T00:00:00Z,29.1080,-87.9440,1011.8,11111222 
ADCP,ioos:station:wmo:42376:1,2011-04-02T00:20:00Z,29.1080,-87.9440,1011.8,11111222 
ADCP,ioos:station:wmo:42376:1,2011-04-02T00:40:00Z,29.1080,-87.9440,1011.9,11111222 
ADCP,ioos:station:wmo:42376:1,2011-04-02T01:00:00Z,29.1080,-87.9440,1012.0,11111222 
ADCP,ioos:station:wmo:42376:1,2011-04-02T01:20:00Z,29.1080,-87.9440,1012.0,11111222 
ADCP,ioos:station:wmo:42376:1,2011-04-02T01:40:00Z,29.1080,-87.9440,1012.3,11111222 
ADCP,ioos:station:wmo:42376:1,2011-04-02T02:00:00Z,29.1080,-87.9440,1012.4,11111222 
ADCP,ioos:station:wmo:42376:1,2011-04-02T02:20:00Z,29.1080,-87.9440,1012.4,11111222 
ADCP,ioos:station:wmo:42376:1,2011-04-02T02:40:00Z,29.1080,-87.9440,1012.6,11111222 
ADCP,ioos:station:wmo:42376:1,2011-04-02T03:00:00Z,29.1080,-87.9440,1012.8,11111222 
ADCP,ioos:station:wmo:42376:1,2011-04-02T03:20:00Z,29.1080,-87.9440,1012.8,11111222 
ADCP,ioos:station:wmo:42376:1,2011-04-02T03:40:00Z,29.1080,-87.9440,1012.9,11111222 
ADCP,ioos:station:wmo:42376:1,2011-04-02T04:00:00Z,29.1080,-87.9440,1013.0,11111222 
ADCP,ioos:station:wmo:42376:1,2011-04-02T04:20:00Z,29.1080,-87.9440,1013.0,11111222 
ADCP,ioos:station:wmo:42376:1,2011-04-02T04:40:00Z,29.1080,-87.9440,1013.1,11111222 
ADCP,ioos:station:wmo:42376:1,2011-04-02T05:00:00Z,29.1080,-87.9440,1013.2,11111222 
ADCP,ioos:station:wmo:42376:1,2011-04-02T05:20:00Z,29.1080,-87.9440,1013.2,11111222 
ADCP,ioos:station:wmo:42376:1,2011-04-02T05:40:00Z,29.1080,-87.9440,1013.1,11111222 
ADCP,ioos:station:wmo:42376:1,2011-04-02T06:00:00Z,29.1080,-87.9440,1013.4,11111222 
ADCP,ioos:station:wmo:42376:1,2011-04-02T06:20:00Z,29.1080,-87.9440,1013.4,11111222 
ADCP,ioos:station:wmo:42376:1,2011-04-02T06:40:00Z,29.1080,-87.9440,1013.7,11111222 
ADCP,ioos:station:wmo:42376:1,2011-04-02T07:00:00Z,29.1080,-87.9440,1013.7,11111222 
ADCP,ioos:station:wmo:42376:1,2011-04-02T07:20:00Z,29.1080,-87.9440,1013.7,11111222 
ADCP,ioos:station:wmo:42376:1,2011-04-02T07:40:00Z,29.1080,-87.9440,1013.7,11111222 
ADCP,ioos:station:wmo:42376:1,2011-04-02T08:00:00Z,29.1080,-87.9440,1013.5,11111222 
ADCP,ioos:station:wmo:42376:1,2011-04-02T08:20:00Z,29.1080,-87.9440,1013.5,11111222 
ADCP,ioos:station:wmo:42376:1,2011-04-02T08:40:00Z,29.1080,-87.9440,1013.4,11111222 
ADCP,ioos:station:wmo:42376:1,2011-04-02T09:00:00Z,29.1080,-87.9440,1013.4,11111222 
ADCP,ioos:station:wmo:42376:1,2011-04-02T09:20:00Z,29.1080,-87.9440,1013.4,11111222 
ADCP,ioos:station:wmo:42376:1,2011-04-02T09:40:00Z,29.1080,-87.9440,1013.8,11111222 
ADCP,ioos:station:wmo:42376:1,2011-04-02T10:00:00Z,29.1080,-87.9440,1014.0,11111222 
ADCP,ioos:station:wmo:42376:1,2011-04-02T10:20:00Z,29.1080,-87.9440,1014.0,11111222 
ADCP,ioos:station:wmo:42376:1,2011-04-02T10:40:00Z,29.1080,-87.9440,1014.3,11111222 
ADCP,ioos:station:wmo:42376:1,2011-04-02T11:00:00Z,29.1080,-87.9440,1014.9,11111222 
ADCP,ioos:station:wmo:42376:1,2011-04-02T11:20:00Z,29.1080,-87.9440,1014.9,11111222 
ADCP,ioos:station:wmo:42376:1,2011-04-02T11:40:00Z,29.1080,-87.9440,1014.8,11111222 
ADCP,ioos:station:wmo:42376:1,2011-04-02T12:00:00Z,29.1080,-87.9440,1014.9,11111222 
ADCP,ioos:station:wmo:42376:1,2011-04-02T12:20:00Z,29.1080,-87.9440,1014.9,11111222 
ADCP,ioos:station:wmo:42376:1,2011-04-02T12:40:00Z,29.1080,-87.9440,1015.4,11111222 
ADCP,ioos:station:wmo:42376:1,2011-04-02T13:00:00Z,29.1080,-87.9440,1015.5,11111222 
ADCP,ioos:station:wmo:42376:1,2011-04-02T13:20:00Z,29.1080,-87.9440,1015.5,11111222 
ADCP,ioos:station:wmo:42376:1,2011-04-02T13:40:00Z,29.1080,-87.9440,1015.4,11111222 
ADCP,ioos:station:wmo:42376:1,2011-04-02T14:00:00Z,29.1080,-87.9440,1015.9,11111222 
ADCP,ioos:station:wmo:42376:1,2011-04-02T14:20:00Z,29.1080,-87.9440,1015.9,11111222 
ADCP,ioos:station:wmo:42376:1,2011-04-02T14:40:00Z,29.1080,-87.9440,1016.5,11111222 
ADCP,ioos:station:wmo:42376:1,2011-04-02T15:00:00Z,29.1080,-87.9440,1016.9,11111222 
ADCP,ioos:station:wmo:42376:1,2011-04-02T15:20:00Z,29.1080,-87.9440,1016.9,11111222 
ADCP,ioos:station:wmo:42376:1,2011-04-02T15:40:00Z,29.1080,-87.9440,1017.3,11111222 
ADCP,ioos:station:wmo:42376:1,2011-04-02T16:00:00Z,29.1080,-87.9440,1017.6,11111222 
ADCP,ioos:station:wmo:42376:1,2011-04-02T16:20:00Z,29.1080,-87.9440,1017.6,11111222 
ADCP,ioos:station:wmo:42376:1,2011-04-02T16:40:00Z,29.1080,-87.9440,1017.6,11111222 
ADCP,ioos:station:wmo:42376:1,2011-04-02T17:00:00Z,29.1080,-87.9440,1017.6,11111222 
ADCP,ioos:station:wmo:42376:1,2011-04-02T17:20:00Z,29.1080,-87.9440,1017.6,11111222 
ADCP,ioos:station:wmo:42376:1,2011-04-02T17:40:00Z,29.1080,-87.9440,1017.5,11111222 
ADCP,ioos:station:wmo:42376:1,2011-04-02T18:00:00Z,29.1080,-87.9440,1017.3,11111222 
ADCP,ioos:station:wmo:42376:1,2011-04-02T18:20:00Z,29.1080,-87.9440,1017.3,11111222 
ADCP,ioos:station:wmo:42376:1,2011-04-02T18:40:00Z,29.1080,-87.9440,1016.8,11111222 
ADCP,ioos:station:wmo:42376:1,2011-04-02T19:00:00Z,29.1080,-87.9440,1016.7,11111222 
ADCP,ioos:station:wmo:42376:1,2011-04-02T19:20:00Z,29.1080,-87.9440,1016.7,11111222 
ADCP,ioos:station:wmo:42376:1,2011-04-02T19:40:00Z,29.1080,-87.9440,1016.5,11111222 
ADCP,ioos:station:wmo:42376:1,2011-04-02T20:00:00Z,29.1080,-87.9440,1016.2,11111222 
ADCP,ioos:station:wmo:42376:1,2011-04-02T20:20:00Z,29.1080,-87.9440,1016.2,11111222 
ADCP,ioos:station:wmo:42376:1,2011-04-02T20:40:00Z,29.1080,-87.9440,1015.9,11111222 
ADCP,ioos:station:wmo:42376:1,2011-04-02T21:00:00Z,29.1080,-87.9440,1015.5,11111222 
ADCP,ioos:station:wmo:42376:1,2011-04-02T21:20:00Z,29.1080,-87.9440,1015.5,11111222 
ADCP,ioos:station:wmo:42376:1,2011-04-02T21:40:00Z,29.1080,-87.9440,1015.5,11111222 
ADCP,ioos:station:wmo:42376:1,2011-04-02T22:00:00Z,29.1080,-87.9440,1015.3,11111222 
ADCP,ioos:station:wmo:42376:1,2011-04-02T22:40:00Z,29.1080,-87.9440,1015.3,11111222 
ADCP,ioos:station:wmo:42376:1,2011-04-02T23:00:00Z,29.1080,-87.9440,1015.3,11111222 
ADCP,ioos:station:wmo:42376:1,2011-04-02T23:20:00Z,29.1080,-87.9440,1015.3,11111222 
ADCP,ioos:station:wmo:42376:1,2011-04-02T23:40:00Z,29.1080,-87.9440,1015.7,11111222 
ADCP,ioos:station:wmo:42376:1,2011-04-03T00:00:00Z,29.1080,-87.9440,1015.7,11111222 
ADCP,ioos:station:wmo:42376:1,2011-04-03T00:20:00Z,29.1080,-87.9440,1015.7,11111222 
ADCP,ioos:station:wmo:42376:1,2011-04-03T00:40:00Z,29.1080,-87.9440,1016.2,11111222 
ADCP,ioos:station:wmo:42376:1,2011-04-03T01:00:00Z,29.1080,-87.9440,1016.5,11111222 
ADCP,ioos:station:wmo:42376:1,2011-04-03T01:20:00Z,29.1080,-87.9440,1016.5,11111222 
ADCP,ioos:station:wmo:42376:1,2011-04-03T01:40:00Z,29.1080,-87.9440,1016.7,11111222 
ADCP,ioos:station:wmo:42376:1,2011-04-03T02:00:00Z,29.1080,-87.9440,1017.0,11111222 
ADCP,ioos:station:wmo:42376:1,2011-04-03T02:20:00Z,29.1080,-87.9440,1017.0,11111222 
ADCP,ioos:station:wmo:42376:1,2011-04-03T02:40:00Z,29.1080,-87.9440,1017.0,11111222 
ADCP,ioos:station:wmo:42376:1,2011-04-03T03:00:00Z,29.1080,-87.9440,1017.0,11111222 
ADCP,ioos:station:wmo:42376:1,2011-04-03T03:20:00Z,29.1080,-87.9440,1017.0,11111222 
ADCP,ioos:station:wmo:42376:1,2011-04-03T03:40:00Z,29.1080,-87.9440,1017.0,11111222 
ADCP,ioos:station:wmo:42376:1,2011-04-03T04:00:00Z,29.1080,-87.9440,1016.9,11111222 
ADCP,ioos:station:wmo:42376:1,2011-04-03T04:20:00Z,29.1080,-87.9440,1016.9,11111222 
ADCP,ioos:station:wmo:42376:1,2011-04-03T04:40:00Z,29.1080,-87.9440,1016.7,11111222 
ADCP,ioos:station:wmo:42376:1,2011-04-03T05:00:00Z,29.1080,-87.9440,1016.6,11111222 
ADCP,ioos:station:wmo:42376:1,2011-04-03T05:20:00Z,29.1080,-87.9440,1016.6,11111222 
ADCP,ioos:station:wmo:42376:1,2011-04-03T05:40:00Z,29.1080,-87.9440,1016.6,11111222 
ADCP,ioos:station:wmo:42376:1,2011-04-03T06:00:00Z,29.1080,-87.9440,1016.6,11111222 
ADCP,ioos:station:wmo:42376:1,2011-04-03T06:20:00Z,29.1080,-87.9440,1016.6,11111222 
ADCP,ioos:station:wmo:42376:1,2011-04-03T06:40:00Z,29.1080,-87.9440,1016.7,11111222 
ADCP,ioos:station:wmo:42376:1,2011-04-03T07:00:00Z,29.1080,-87.9440,1016.5,11111222 
ADCP,ioos:station:wmo:42376:1,2011-04-03T07:20:00Z,29.1080,-87.9440,1016.5,11111222 
ADCP,ioos:station:wmo:42376:1,2011-04-03T07:40:00Z,29.1080,-87.9440,1016.4,11111222 
ADCP,ioos:station:wmo:42376:1,2011-04-03T08:00:00Z,29.1080,-87.9440,1016.3,11111222 
ADCP,ioos:station:wmo:42376:1,2011-04-03T08:20:00Z,29.1080,-87.9440,1016.3,11111222 
ADCP,ioos:station:wmo:42376:1,2011-04-03T08:40:00Z,29.1080,-87.9440,1016.4,11111222 
ADCP,ioos:station:wmo:42376:1,2011-04-03T09:00:00Z,29.1080,-87.9440,1016.6,11111222 
ADCP,ioos:station:wmo:42376:1,2011-04-03T09:20:00Z,29.1080,-87.9440,1016.6,11111222 
ADCP,ioos:station:wmo:42376:1,2011-04-03T09:40:00Z,29.1080,-87.9440,1016.5,11111222 
ADCP,ioos:station:wmo:42376:1,2011-04-03T10:00:00Z,29.1080,-87.9440,1016.4,11111222 
ADCP,ioos:station:wmo:42376:1,2011-04-03T10:20:00Z,29.1080,-87.9440,1016.4,11111222 
ADCP,ioos:station:wmo:42376:1,2011-04-03T10:40:00Z,29.1080,-87.9440,1016.5,11111222 
ADCP,ioos:station:wmo:42376:1,2011-04-03T11:00:00Z,29.1080,-87.9440,1016.8,11111222 
ADCP,ioos:station:wmo:42376:1,2011-04-03T11:20:00Z,29.1080,-87.9440,1016.8,11111222 
ADCP,ioos:station:wmo:42376:1,2011-04-03T11:40:00Z,29.1080,-87.9440,1017.0,11111222 
ADCP,ioos:station:wmo:42376:1,2011-04-03T12:00:00Z,29.1080,-87.9440,1017.1,11111222 
ADCP,ioos:station:wmo:42376:1,2011-04-03T12:20:00Z,29.1080,-87.9440,1017.1,11111222 
ADCP,ioos:station:wmo:42376:1,2011-04-03T12:40:00Z,29.1080,-87.9440,1017.5,11111222 
ADCP,ioos:station:wmo:42376:1,2011-04-03T13:00:00Z,29.1080,-87.9440,1017.5,11111222 
ADCP,ioos:station:wmo:42376:1,2011-04-03T13:20:00Z,29.1080,-87.9440,1017.5,11111222 
ADCP,ioos:station:wmo:42376:1,2011-04-03T13:40:00Z,29.1080,-87.9440,1017.3,11111222 
ADCP,ioos:station:wmo:42376:1,2011-04-03T14:00:00Z,29.1080,-87.9440,1017.3,11111222 
ADCP,ioos:station:wmo:42376:1,2011-04-03T14:20:00Z,29.1080,-87.9440,1017.3,11111222 
ADCP,ioos:station:wmo:42376:1,2011-04-03T14:40:00Z,29.1080,-87.9440,1017.5,11111222 
ADCP,ioos:station:wmo:42376:1,2011-04-03T15:00:00Z,29.1080,-87.9440,1017.6,11111222 
ADCP,ioos:station:wmo:42376:1,2011-04-03T15:20:00Z,29.1080,-87.9440,1017.6,11111222 
ADCP,ioos:station:wmo:42376:1,2011-04-03T15:40:00Z,29.1080,-87.9440,1017.7,11111222 
ADCP,ioos:station:wmo:42376:1,2011-04-03T16:00:00Z,29.1080,-87.9440,1017.8,11111222 
ADCP,ioos:station:wmo:42376:1,2011-04-03T16:20:00Z,29.1080,-87.9440,1017.8,11111222 
ADCP,ioos:station:wmo:42376:1,2011-04-03T16:40:00Z,29.1080,-87.9440,1017.8,11111222 
ADCP,ioos:station:wmo:42376:1,2011-04-03T17:00:00Z,29.1080,-87.9440,1017.6,11111222 
ADCP,ioos:station:wmo:42376:1,2011-04-03T17:20:00Z,29.1080,-87.9440,1017.6,11111222 
ADCP,ioos:station:wmo:42376:1,2011-04-03T17:40:00Z,29.1080,-87.9440,1017.4,11111222 
ADCP,ioos:station:wmo:42376:1,2011-04-03T18:00:00Z,29.1080,-87.9440,1017.2,11111222 
ADCP,ioos:station:wmo:42376:1,2011-04-03T18:20:00Z,29.1080,-87.9440,1017.2,11111222 
ADCP,ioos:station:wmo:42376:1,2011-04-03T18:40:00Z,29.1080,-87.9440,1016.8,11111222 
ADCP,ioos:station:wmo:42376:1,2011-04-03T19:00:00Z,29.1080,-87.9440,1016.4,11111222 
ADCP,ioos:station:wmo:42376:1,2011-04-03T19:20:00Z,29.1080,-87.9440,1016.4,11111222 
ADCP,ioos:station:wmo:42376:1,2011-04-03T19:40:00Z,29.1080,-87.9440,1016.1,11111222 
ADCP,ioos:station:wmo:42376:1,2011-04-03T20:00:00Z,29.1080,-87.9440,1015.7,11111222 
ADCP,ioos:station:wmo:42376:1,2011-04-03T20:20:00Z,29.1080,-87.9440,1015.7,11111222 
ADCP,ioos:station:wmo:42376:1,2011-04-03T20:40:00Z,29.1080,-87.9440,1015.4,11111222 
ADCP,ioos:station:wmo:42376:1,2011-04-03T21:00:00Z,29.1080,-87.9440,1015.2,11111222 
ADCP,ioos:station:wmo:42376:1,2011-04-03T21:20:00Z,29.1080,-87.9440,1015.2,11111222 
ADCP,ioos:station:wmo:42376:1,2011-04-03T21:40:00Z,29.1080,-87.9440,1015.1,11111222 
ADCP,ioos:station:wmo:42376:1,2011-04-03T22:00:00Z,29.1080,-87.9440,1015.0,11111222 
ADCP,ioos:station:wmo:42376:1,2011-04-03T22:40:00Z,29.1080,-87.9440,1014.8,11111222 
ADCP,ioos:station:wmo:42376:1,2011-04-03T23:00:00Z,29.1080,-87.9440,1014.8,11111222 
ADCP,ioos:station:wmo:42376:1,2011-04-03T23:20:00Z,29.1080,-87.9440,1014.9,11111222 
ADCP,ioos:station:wmo:42376:1,2011-04-03T23:40:00Z,29.1080,-87.9440,1014.9,11111222 
ADCP,ioos:station:wmo:42376:1,2011-04-04T00:00:00Z,29.1080,-87.9440,1014.6,11111222 
ADCP,ioos:station:wmo:42376:1,2011-04-04T00:20:00Z,29.1080,-87.9440,1014.6,11111222 
ADCP,ioos:station:wmo:42376:1,2011-04-04T00:40:00Z,29.1080,-87.9440,1014.6,11111222 
ADCP,ioos:station:wmo:42376:1,2011-04-04T01:00:00Z,29.1080,-87.9440,1014.7,11111222 
ADCP,ioos:station:wmo:42376:1,2011-04-04T01:20:00Z,29.1080,-87.9440,1014.7,11111222 
ADCP,ioos:station:wmo:42376:1,2011-04-04T01:40:00Z,29.1080,-87.9440,1014.8,11111222 
ADCP,ioos:station:wmo:42376:1,2011-04-04T02:00:00Z,29.1080,-87.9440,1014.9,11111222 
ADCP,ioos:station:wmo:42376:1,2011-04-04T02:20:00Z,29.1080,-87.9440,1014.9,11111222 
ADCP,ioos:station:wmo:42376:1,2011-04-04T02:40:00Z,29.1080,-87.9440,1014.9,11111222 
ADCP,ioos:station:wmo:42376:1,2011-04-04T03:00:00Z,29.1080,-87.9440,1014.8,11111222 
ADCP,ioos:station:wmo:42376:1,2011-04-04T03:20:00Z,29.1080,-87.9440,1014.8,11111222 
ADCP,ioos:station:wmo:42376:1,2011-04-04T03:40:00Z,29.1080,-87.9440,1014.7,11111222 
ADCP,ioos:station:wmo:42376:1,2011-04-04T04:00:00Z,29.1080,-87.9440,1014.4,11111222 
ADCP,ioos:station:wmo:42376:1,2011-04-04T04:20:00Z,29.1080,-87.9440,1014.4,11111222 
ADCP,ioos:station:wmo:42376:1,2011-04-04T04:40:00Z,29.1080,-87.9440,1014.1,11111222 
ADCP,ioos:station:wmo:42376:1,2011-04-04T05:00:00Z,29.1080,-87.9440,1014.0,11111222 
ADCP,ioos:station:wmo:42376:1,2011-04-04T05:20:00Z,29.1080,-87.9440,1014.0,11111222 
ADCP,ioos:station:wmo:42376:1,2011-04-04T05:40:00Z,29.1080,-87.9440,1013.9,11111222 
ADCP,ioos:station:wmo:42376:1,2011-04-04T06:00:00Z,29.1080,-87.9440,1013.6,11111222 
ADCP,ioos:station:wmo:42376:1,2011-04-04T06:20:00Z,29.1080,-87.9440,1013.6,11111222 
ADCP,ioos:station:wmo:42376:1,2011-04-04T06:40:00Z,29.1080,-87.9440,1013.6,11111222 
ADCP,ioos:station:wmo:42376:1,2011-04-04T07:00:00Z,29.1080,-87.9440,1013.0,11111222 
ADCP,ioos:station:wmo:42376:1,2011-04-04T07:20:00Z,29.1080,-87.9440,1013.0,11111222 
ADCP,ioos:station:wmo:42376:1,2011-04-04T07:40:00Z,29.1080,-87.9440,1012.8,11111222 
ADCP,ioos:station:wmo:42376:1,2011-04-04T08:00:00Z,29.1080,-87.9440,1012.5,11111222 
ADCP,ioos:station:wmo:42376:1,2011-04-04T08:20:00Z,29.1080,-87.9440,1012.5,11111222 
ADCP,ioos:station:wmo:42376:1,2011-04-04T08:40:00Z,29.1080,-87.9440,1012.1,11111222 
ADCP,ioos:station:wmo:42376:1,2011-04-04T09:00:00Z,29.1080,-87.9440,1011.9,11111222 
ADCP,ioos:station:wmo:42376:1,2011-04-04T09:20:00Z,29.1080,-87.9440,1011.9,11111222 
ADCP,ioos:station:wmo:42376:1,2011-04-04T09:40:00Z,29.1080,-87.9440,1011.9,11111222 
ADCP,ioos:station:wmo:42376:1,2011-04-04T10:00:00Z,29.1080,-87.9440,1011.7,11111222 
ADCP,ioos:station:wmo:42376:1,2011-04-04T10:20:00Z,29.1080,-87.9440,1011.7,11111222 
ADCP,ioos:station:wmo:42376:1,2011-04-04T10:40:00Z,29.1080,-87.9440,1011.7,11111222 
ADCP,ioos:station:wmo:42376:1,2011-04-04T11:00:00Z,29.1080,-87.9440,1011.7,11111222 
ADCP,ioos:station:wmo:42376:1,2011-04-04T11:20:00Z,29.1080,-87.9440,1011.7,11111222 
ADCP,ioos:station:wmo:42376:1,2011-04-04T11:40:00Z,29.1080,-87.9440,1011.7,11111222 
ADCP,ioos:station:wmo:42376:1,2011-04-04T12:00:00Z,29.1080,-87.9440,1011.8,11111222 
ADCP,ioos:station:wmo:42376:1,2011-04-04T12:20:00Z,29.1080,-87.9440,1011.8,11111222 
ADCP,ioos:station:wmo:42376:1,2011-04-04T12:40:00Z,29.1080,-87.9440,1012.0,11111222 
ADCP,ioos:station:wmo:42376:1,2011-04-04T13:00:00Z,29.1080,-87.9440,1011.9,11111222 
ADCP,ioos:station:wmo:42376:1,2011-04-04T13:20:00Z,29.1080,-87.9440,1011.9,11111222 
ADCP,ioos:station:wmo:42376:1,2011-04-04T13:40:00Z,29.1080,-87.9440,1011.7,11111222 
ADCP,ioos:station:wmo:42376:1,2011-04-04T14:00:00Z,29.1080,-87.9440,1011.5,11111222 
ADCP,ioos:station:wmo:42376:1,2011-04-04T14:20:00Z,29.1080,-87.9440,1011.5,11111222 
ADCP,ioos:station:wmo:42376:1,2011-04-04T14:40:00Z,29.1080,-87.9440,1011.4,11111222 
ADCP,ioos:station:wmo:42376:1,2011-04-04T15:00:00Z,29.1080,-87.9440,1011.5,11111222 
ADCP,ioos:station:wmo:42376:1,2011-04-04T15:20:00Z,29.1080,-87.9440,1011.5,11111222 
ADCP,ioos:station:wmo:42376:1,2011-04-04T15:40:00Z,29.1080,-87.9440,1011.4,11111222 
ADCP,ioos:station:wmo:42376:1,2011-04-04T16:00:00Z,29.1080,-87.9440,1011.3,11111222 
ADCP,ioos:station:wmo:42376:1,2011-04-04T16:20:00Z,29.1080,-87.9440,1011.3,11111222 
ADCP,ioos:station:wmo:42376:1,2011-04-04T16:40:00Z,29.1080,-87.9440,1010.8,11111222 
ADCP,ioos:station:wmo:42376:1,2011-04-04T17:00:00Z,29.1080,-87.9440,1010.9,11111222 
ADCP,ioos:station:wmo:42376:1,2011-04-04T17:20:00Z,29.1080,-87.9440,1010.9,11111222 
ADCP,ioos:station:wmo:42376:1,2011-04-04T17:40:00Z,29.1080,-87.9440,1010.4,11111222 
ADCP,ioos:station:wmo:42376:1,2011-04-04T18:00:00Z,29.1080,-87.9440,1010.1,11111222 
ADCP,ioos:station:wmo:42376:1,2011-04-04T18:20:00Z,29.1080,-87.9440,1010.1,11111222 
ADCP,ioos:station:wmo:42376:1,2011-04-04T18:40:00Z,29.1080,-87.9440,1009.9,11111222 
ADCP,ioos:station:wmo:42376:1,2011-04-04T19:00:00Z,29.1080,-87.9440,1009.7,11111222 
ADCP,ioos:station:wmo:42376:1,2011-04-04T19:20:00Z,29.1080,-87.9440,1009.7,11111222 
ADCP,ioos:station:wmo:42376:1,2011-04-04T19:40:00Z,29.1080,-87.9440,1009.7,11111222 
ADCP,ioos:station:wmo:42376:1,2011-04-04T20:00:00Z,29.1080,-87.9440,1009.7,11111222 
ADCP,ioos:station:wmo:42376:1,2011-04-04T20:20:00Z,29.1080,-87.9440,1009.7,11111222 
ADCP,ioos:station:wmo:42376:1,2011-04-04T20:40:00Z,29.1080,-87.9440,1009.5,11111222 
ADCP,ioos:station:wmo:42376:1,2011-04-04T21:00:00Z,29.1080,-87.9440,1009.3,11111222 
ADCP,ioos:station:wmo:42376:1,2011-04-04T21:20:00Z,29.1080,-87.9440,1009.3,11111222 
ADCP,ioos:station:wmo:42376:1,2011-04-04T21:40:00Z,29.1080,-87.9440,1009.1,11111222 
ADCP,ioos:station:wmo:42376:1,2011-04-04T22:00:00Z,29.1080,-87.9440,1008.9,11111222 
ADCP,ioos:station:wmo:42376:1,2011-04-04T22:40:00Z,29.1080,-87.9440,1008.8,11111222 
ADCP,ioos:station:wmo:42376:1,2011-04-04T23:00:00Z,29.1080,-87.9440,1008.6,11111222 
ADCP,ioos:station:wmo:42376:1,2011-04-04T23:20:00Z,29.1080,-87.9440,1008.6,11111222 